User: anonymous   Login
Location: Zabrze
(50.3000°N, 18.7833°E)
Time: 23:13:11
(UTC+01:00)
Language:

ISS - Orbit

View from above orbital plane
View from above orbital plane
View from above satellite
View from above satellite

Ground track
Ground track

The orbit data is extracted from the following two-line orbital elements,

1 25544U 98067A   18324.47811211  .00016717  00000-0  10270-3 0  9066
2 25544  51.6394 319.8776 0005321  66.7869 293.3843 15.53995769 22818
Epoch (UTC): 20 November 2018 11:28:28
Eccentricity: 0.0005321
inclination: 51.6394°
perigee height: 401 km
apogee height: 408 km
right ascension of ascending node: 319.8776°
argument of perigee: 66.7869°
revolutions per day: 15.53995769
mean anomaly at epoch: 293.3843°
orbit number at epoch: 2281

The dashed part of the orbit path shows where the satellite is in the earth's shadow,  

DLR